Wind_Speed
14 15 15 15 15 15 15 15 15 15 14 14 14 14 14 13 13 13 12 12 12 12 12 12 13 13 13 14 15 18 19 20 20 19 18 15 11 12 15 15 15 15 11 9 11 11 13 13 11 10 10 10 9 8 10 9 8 6 4 3 1 1 2 3 5 4 2 6 10 14 15 10 11 12 8 9 9 14 15 10 12 9 4 8 13 20 25 24
14 14 15 15 15 15 15 16 16 16 15 15 15 15 14 14 14 13 13 12 12 12 12 12 13 12 13 14 16 20 22 22 22 19 15 9 5 6 9 13 16 17 15 13 13 13 12 12 11 11 9 9 8 7 8 8 9 7 4 2 1 1 2 2 5 6 3 6 11 13 15 10 11 14 12 11 11 14 13 11 13 10 9 13 17 24 25 24
14 14 14 15 15 15 15 15 16 16 16 16 16 16 16 16 15 14 14 13 13 13 13 13 13 13 14 15 18 20 23 26 21 11 4 3 2 5 8 10 15 17 17 14 13 12 11 11 10 10 9 9 8 8 7 8 9 8 5 2 2 1 0 2 5 8 5 6 11 13 14 11 12 14 13 12 11 13 12 12 16 15 15 17 22 25 25 26
14 14 14 15 15 15 15 15 15 16 16 16 16 16 17 17 17 16 15 14 14 14 14 14 14 15 15 16 18 20 24 24 10 3 2 3 7 9 8 7 11 17 18 13 12 12 11 11 11 11 10 10 10 9 8 8 7 6 5 4 2 1 2 2 5 9 8 7 12 14 14 12 13 14 13 12 10 11 12 15 18 18 19 21 24 26 26 27
14 14 14 15 15 15 15 15 15 15 16 16 16 17 17 17 17 17 17 16 15 15 15 15 15 16 16 17 18 19 21 13 4 5 9 10 12 12 8 5 5 13 18 14 12 12 12 13 13 12 11 10 10 10 10 11 9 5 5 7 3 1 3 1 4 9 10 10 13 15 14 13 14 13 13 14 9 6 11 16 17 18 21 25 26 27 26 27
14 14 14 15 15 15 15 15 15 15 16 16 16 16 17 17 18 18 18 17 17 16 16 16 16 16 17 17 19 19 14 6 1 7 16 11 9 10 6 4 4 6 13 15 13 12 14 15 15 14 12 11 11 11 10 12 11 6 6 9 7 5 5 2 5 9 11 12 13 14 14 15 15 12 13 14 7 3 7 15 17 18 21 26 27 27 27 27
15 15 15 15 15 15 15 15 15 15 16 16 16 16 17 17 17 18 17 18 18 18 17 17 17 17 17 17 20 18 13 14 13 13 11 7 5 7 5 5 6 6 9 13 15 15 16 18 18 17 13 10 12 13 11 10 12 8 6 9 7 6 8 6 5 9 13 13 13 14 14 17 15 11 12 14 6 3 6 15 18 19 22 25 27 27 27 27
15 15 16 16 16 16 16 15 15 15 16 16 16 17 17 17 17 17 17 18 18 18 18 18 18 17 17 17 17 16 14 15 13 11 8 7 6 6 5 4 7 9 9 12 17 17 17 19 21 17 13 11 12 12 11 9 11 11 9 8 8 8 8 7 6 9 13 12 13 15 15 16 15 10 12 14 7 4 10 17 18 20 23 25 26 27 28 27
16 16 16 16 17 17 17 16 15 16 15 16 16 17 18 18 18 17 17 17 17 18 18 18 18 17 16 16 15 14 13 11 10 11 10 10 9 7 5 4 7 9 10 13 17 18 18 19 22 19 13 12 13 12 12 10 8 11 13 11 8 7 6 6 8 10 13 13 14 15 14 16 14 9 10 14 10 9 14 18 20 21 23 24 26 27 27 27
16 16 17 17 17 17 17 17 17 16 16 16 16 17 18 19 19 18 17 17 17 17 17 17 17 16 16 15 12 10 9 11 13 13 11 12 11 9 7 7 8 8 10 14 17 20 22 19 21 21 13 11 12 11 12 11 5 6 10 10 8 6 5 5 8 12 13 13 16 15 12 14 14 9 8 13 13 12 16 19 20 22 22 24 25 27 27 27
18 17 18 18 17 18 17 17 17 17 17 16 16 17 17 18 19 18 18 17 17 17 17 16 15 15 15 13 12 13 11 12 16 16 14 13 13 12 9 9 8 8 10 14 18 21 22 19 18 17 11 9 11 12 14 13 8 6 7 7 7 6 4 7 10 14 13 12 17 15 11 13 13 10 7 14 17 14 17 19 21 21 21 23 24 26 26 26
19 19 19 19 18 19 18 18 17 17 17 16 17 17 17 18 18 19 19 18 17 17 16 15 14 14 13 13 18 19 15 15 19 19 18 15 14 13 10 10 8 8 9 14 18 19 21 20 17 17 12 8 10 10 11 15 12 9 10 8 7 5 5 9 11 15 13 11 16 14 9 10 12 12 9 16 19 16 17 19 20 20 20 23 24 25 25 25
18 19 19 19 19 19 19 19 18 17 17 17 17 17 18 17 17 18 18 18 18 17 16 15 13 12 11 12 18 22 19 19 20 16 14 14 12 11 10 10 9 7 8 12 14 16 20 19 18 21 17 11 11 5 4 12 13 10 11 9 6 5 6 10 12 15 13 11 17 14 6 8 12 14 13 17 19 18 18 18 19 20 20 22 24 25 25 25
17 18 18 19 19 19 20 20 20 18 17 17 18 18 18 16 17 18 18 19 18 17 15 13 11 9 10 14 17 19 14 10 8 3 3 6 8 9 9 10 8 5 4 9 10 12 17 17 15 18 18 16 12 5 4 10 11 10 10 7 7 7 6 12 13 15 12 11 18 14 5 5 9 15 18 18 20 19 18 18 19 19 20 22 24 25 24 25
16 17 18 18 18 18 19 20 21 19 18 18 18 18 18 16 16 17 18 19 18 16 13 10 10 7 10 17 17 11 5 2 4 6 3 1 4 7 9 9 6 4 4 7 8 10 14 16 16 15 16 18 13 8 9 9 8 9 9 7 9 7 6 12 13 15 11 11 17 13 5 4 6 14 20 19 20 20 18 18 19 19 20 21 23 24 23 24
17 17 18 18 17 18 18 19 20 19 19 19 19 19 18 17 16 17 18 18 17 14 10 8 8 6 7 11 8 4 4 4 5 7 4 3 2 5 8 9 7 7 8 8 7 9 12 16 17 16 15 15 12 9 9 9 8 9 9 8 10 9 7 9 11 15 13 11 15 13 6 3 5 12 17 18 20 20 18 18 19 20 20 21 22 23 23 23
19 19 19 18 18 17 18 18 19 18 18 18 19 18 18 17 16 16 17 16 15 12 9 7 5 6 10 10 8 7 7 7 7 7 3 2 1 5 9 11 9 10 10 8 8 9 13 16 15 13 13 11 11 11 10 11 10 8 9 9 9 9 9 9 11 14 14 12 14 14 10 4 6 8 13 17 19 20 18 18 19 20 20 21 21 22 23 23
20 20 20 19 18 18 18 18 18 17 16 17 18 17 17 17 15 15 15 14 12 9 8 8 5 4 8 9 6 6 9 10 9 5 6 6 5 6 11 12 10 12 11 9 11 12 13 16 14 10 11 11 11 13 12 12 12 11 11 9 9 9 9 9 10 12 16 14 12 13 12 9 8 8 12 16 17 19 19 18 18 20 20 22 22 22 22 23
21 22 21 20 19 18 19 19 18 17 16 15 15 16 15 13 13 12 11 9 7 7 6 6 10 7 6 5 6 7 7 10 12 12 12 10 8 9 12 11 12 14 12 9 12 16 14 12 13 11 11 14 14 15 15 14 15 14 13 11 11 10 10 11 9 11 16 14 11 12 12 11 10 11 13 15 16 17 18 17 18 19 20 21 22 22 23 23
21 22 22 21 19 18 18 19 18 17 15 12 12 12 10 9 8 5 4 10 15 16 16 11 15 18 18 13 13 11 10 13 16 14 11 11 11 13 14 13 14 14 12 9 11 16 15 11 12 13 14 17 18 19 18 17 17 14 13 12 13 11 10 13 10 10 14 13 11 13 12 12 11 10 11 14 15 16 17 18 18 18 19 21 22 22 22 23
22 21 22 22 20 18 18 18 17 16 14 10 9 9 5 6 5 4 7 15 20 20 23 21 18 24 25 18 14 11 10 11 13 12 10 13 15 14 16 17 14 11 12 12 11 13 14 12 13 16 17 17 18 19 19 20 19 14 13 12 11 12 9 10 10 9 13 12 9 12 13 12 11 9 9 12 14 15 17 18 19 19 19 20 21 22 23 22
22 22 22 21 20 18 16 16 15 13 11 8 10 7 1 2 2 5 9 14 20 19 22 23 21 26 27 22 19 14 12 12 13 15 13 16 19 16 16 17 14 10 13 14 11 11 12 13 16 18 17 16 17 19 20 21 19 14 12 12 10 12 9 7 9 9 9 9 8 10 11 10 11 11 10 13 14 14 18 20 20 21 21 21 22 22 23 23
22 23 22 22 21 17 16 16 12 10 10 10 10 4 2 1 3 6 7 11 19 17 18 20 20 24 22 17 15 13 15 15 13 14 17 20 21 19 16 15 14 13 14 15 13 10 10 13 17 18 16 17 16 17 19 19 16 14 12 12 10 12 11 8 9 11 11 10 8 8 9 8 9 11 11 14 16 16 17 19 20 21 22 23 23 23 24 24
23 24 22 22 21 17 16 14 8 8 11 10 5 2 4 2 5 9 6 9 13 12 14 17 16 17 15 9 9 14 16 14 10 11 19 24 22 20 16 15 15 14 14 17 18 14 11 11 16 19 17 17 16 15 17 15 13 15 16 14 11 13 13 10 10 11 12 11 8 7 7 7 9 11 11 11 15 16 17 18 19 20 22 22 23 24 24 25
23 24 23 23 22 18 15 10 7 9 10 5 3 5 5 5 7 9 5 7 9 7 8 11 11 10 11 8 9 12 10 10 10 11 19 27 25 17 14 15 14 13 16 19 18 15 14 9 12 19 18 16 17 15 15 14 12 14 17 17 16 14 12 13 14 11 9 10 9 8 8 6 10 14 12 10 12 16 17 18 19 20 21 22 24 25 25 26
22 22 23 23 22 20 14 7 8 10 6 1 4 2 3 5 7 7 2 5 7 4 4 7 8 6 9 10 10 10 6 6 9 11 18 26 25 17 13 13 11 13 16 16 12 9 12 12 11 16 18 18 18 15 16 16 12 11 15 18 19 17 13 13 16 13 9 9 10 10 9 7 9 13 12 11 12 15 16 16 19 22 23 24 25 26 27 27
21 20 22 22 21 22 16 9 10 8 3 2 2 2 3 3 6 4 1 5 5 3 4 5 5 6 8 8 12 9 2 5 8 12 18 21 25 20 13 11 10 12 12 11 9 8 13 16 13 15 17 17 16 14 15 17 13 12 14 17 19 19 16 13 14 13 10 10 10 11 10 8 9 10 9 12 13 14 16 17 18 22 25 26 27 27 28 29
20 18 21 21 19 20 18 13 10 7 3 5 3 2 1 3 4 1 3 6 2 3 3 4 3 5 6 8 15 10 3 2 5 10 16 18 23 21 15 14 12 12 13 11 9 9 14 18 16 16 16 14 14 15 16 16 15 13 11 12 15 18 17 14 12 12 12 11 10 12 12 9 9 8 8 12 15 15 17 17 18 21 26 27 28 29 29 30
20 17 19 21 18 17 16 12 8 7 6 3 2 3 3 5 3 3 5 5 2 3 4 6 5 7 8 7 14 12 5 4 3 7 15 17 21 18 12 15 15 13 14 13 11 8 11 18 19 16 14 12 13 16 17 17 15 13 8 8 11 14 15 14 11 10 11 13 12 14 15 10 9 9 9 11 13 13 14 14 16 21 27 28 29 30 30 30
20 16 17 21 19 17 17 13 8 8 7 3 4 4 4 3 3 5 7 4 2 3 6 7 6 9 11 8 9 11 9 7 4 9 14 16 20 17 12 15 15 12 12 14 16 10 8 14 18 15 13 13 13 15 17 17 16 12 8 8 9 10 11 10 9 8 10 13 12 15 17 12 9 10 10 11 11 12 12 12 14 18 25 28 30 31 32 31
21 17 15 19 19 17 17 15 11 9 7 5 4 2 3 4 5 8 7 1 1 5 8 8 8 9 11 8 6 8 9 7 8 11 11 12 16 16 11 11 11 10 11 12 14 14 10 11 12 14 17 16 13 13 14 15 16 13 9 10 9 7 7 7 7 8 10 11 11 16 20 15 11 10 9 10 12 15 15 12 12 14 21 28 30 30 32 32
21 18 15 16 18 17 15 14 12 10 8 5 4 5 5 6 8 10 6 3 2 7 7 7 10 9 10 7 6 8 6 6 10 12 11 11 12 13 12 11 10 10 11 10 11 14 13 11 11 13 18 20 15 12 12 12 15 14 11 11 10 8 8 8 9 9 9 11 11 16 19 16 12 11 13 11 10 14 15 13 14 14 18 25 28 29 30 31
21 19 17 15 16 17 15 14 14 12 9 6 6 7 7 8 9 10 9 5 3 4 4 5 9 10 9 8 8 8 6 6 9 11 13 13 11 14 17 16 15 12 9 10 11 11 11 12 15 14 14 20 19 12 11 12 13 15 13 11 11 10 10 11 11 9 9 11 14 15 14 13 10 10 15 16 13 16 17 16 19 17 15 18 23 27 28 29
20 19 18 15 15 16 14 13 13 11 8 7 8 8 11 12 9 7 11 11 4 3 5 6 6 9 10 9 7 6 6 7 10 11 12 13 11 12 15 17 19 15 9 10 10 10 11 11 16 16 11 17 22 17 13 12 13 15 14 13 12 11 11 11 10 11 11 11 14 15 12 10 10 8 10 13 15 19 20 18 19 17 15 15 18 22 25 28
20 18 17 15 13 12 12 10 10 10 9 9 9 10 13 12 8 7 9 11 8 6 7 6 6 9 9 10 9 7 7 7 8 11 11 12 11 11 13 15 19 17 11 10 8 10 13 9 13 19 15 16 20 19 17 14 12 13 13 14 13 12 11 10 11 12 11 11 12 12 9 8 9 7 6 8 10 14 16 16 17 17 16 15 16 20 24 27
21 17 15 12 8 6 6 8 9 9 10 11 10 11 13 10 7 7 6 7 10 10 9 8 9 10 9 9 10 10 9 7 8 9 9 12 13 13 14 13 17 19 14 10 6 7 12 9 11 19 19 19 19 19 20 17 10 10 13 15 14 14 13 12 13 11 10 12 11 9 8 9 10 9 10 13 13 13 13 14 16 17 16 17 18 21 24 26
21 18 17 10 6 4 2 4 8 12 12 10 12 12 11 10 11 9 4 4 7 8 10 9 8 10 10 9 11 12 12 9 9 8 8 12 12 14 16 14 17 21 18 13 7 6 9 8 10 17 19 20 20 20 21 20 15 9 11 15 14 14 13 12 12 10 11 12 10 10 12 11 10 8 11 16 18 17 16 15 16 16 15 18 19 21 25 26
21 21 17 7 9 7 4 4 4 12 12 10 13 14 11 11 13 12 8 5 5 7 10 9 7 8 9 8 9 12 12 9 10 9 9 9 8 13 16 14 17 21 22 18 10 7 8 8 10 17 18 17 18 18 17 20 22 16 10 13 13 12 12 11 11 11 13 12 10 13 14 12 10 8 8 12 14 15 16 15 16 13 14 18 20 21 24 26
20 18 9 5 8 8 7 6 2 10 12 10 12 12 11 12 15 16 16 12 9 8 9 10 8 7 9 10 7 9 11 9 8 8 8 7 6 10 14 13 15 20 23 21 12 7 8 7 7 14 18 16 14 14 13 15 21 20 14 11 12 11 11 12 11 9 11 12 10 13 14 11 10 10 11 11 11 12 12 14 13 10 11 16 18 19 22 25
15 11 5 5 7 9 8 9 4 9 10 10 12 10 10 12 15 19 21 17 12 10 10 11 11 9 10 11 9 7 9 9 7 6 7 7 6 7 11 13 15 18 22 22 16 9 8 7 7 10 16 16 12 13 16 15 16 16 15 13 12 11 10 11 13 11 11 11 10 11 12 9 8 10 13 15 13 12 12 13 12 10 13 16 17 18 20 23
12 6 3 3 8 10 12 10 7 10 8 10 12 12 12 11 12 16 20 21 17 15 14 13 13 12 10 11 11 9 8 8 9 8 6 8 7 5 8 11 13 16 18 19 16 11 8 7 8 8 11 13 13 15 20 21 17 15 14 14 14 12 10 12 15 14 13 12 11 11 11 9 8 7 9 13 14 13 14 15 14 15 18 17 14 16 19 22
9 6 4 8 13 14 11 8 9 10 9 10 11 12 12 11 11 13 16 19 18 16 16 14 13 13 11 11 12 11 10 9 10 10 8 8 10 6 4 5 11 14 14 13 14 14 9 7 8 9 8 11 14 16 19 23 23 19 15 15 16 14 12 13 13 13 14 15 14 13 13 11 7 4 6 11 13 13 14 13 12 15 19 16 12 13 17 21
9 12 14 13 12 9 7 7 9 9 9 12 14 15 14 11 11 13 14 16 15 13 13 13 14 15 13 12 13 12 11 10 10 12 10 8 10 8 3 4 7 12 12 11 13 15 10 7 8 9 8 9 13 15 17 20 21 19 16 16 17 17 17 16 14 12 13 15 14 13 14 12 6 4 3 8 9 9 12 12 13 15 15 14 13 12 15 18
13 18 18 10 5 7 8 7 8 8 9 12 14 15 15 14 13 13 13 14 13 12 12 12 13 15 14 13 14 13 12 10 10 12 12 10 9 9 8 6 7 10 10 4 6 12 11 7 9 9 8 9 11 12 14 16 15 13 15 18 19 22 23 20 16 12 13 18 19 16 13 12 9 6 5 8 7 7 10 13 16 17 15 15 14 11 13 16
14 14 13 9 7 10 11 9 9 9 10 12 13 13 13 13 15 16 16 14 14 13 12 12 14 14 14 14 14 15 14 12 10 9 10 11 9 9 10 9 10 10 4 7 8 6 11 9 10 11 10 11 11 11 11 12 12 11 15 20 23 26 26 20 14 13 14 17 20 17 13 13 15 14 14 15 13 12 14 15 14 15 16 17 13 11 13 15
11 7 7 8 8 12 13 14 14 10 9 10 10 11 12 11 12 16 17 16 17 16 12 11 13 13 14 16 15 14 15 15 11 8 8 9 8 8 8 7 8 6 2 10 7 4 8 9 12 14 13 12 11 11 11 12 13 14 18 23 24 25 26 21 14 14 14 13 15 15 14 17 20 18 17 16 15 15 17 16 14 13 14 14 12 14 15 13
8 5 6 6 6 9 11 12 10 7 8 10 8 8 11 11 10 11 13 13 16 18 14 11 13 13 13 15 14 13 14 15 14 13 11 10 8 6 5 6 7 3 2 6 7 7 6 9 14 17 19 18 16 14 15 15 16 17 19 23 24 24 26 24 20 19 16 14 15 13 12 19 23 20 18 16 13 13 15 16 18 19 20 19 15 16 17 14
8 8 10 9 6 7 6 7 8 9 11 11 9 10 12 12 11 9 9 10 14 16 13 11 15 16 15 14 12 12 13 14 14 15 14 12 10 9 8 9 10 8 6 8 9 8 8 10 13 16 19 21 21 20 20 18 17 17 18 21 23 24 26 26 25 24 20 17 16 13 14 20 23 22 22 18 14 14 14 16 22 24 26 24 16 14 16 16
10 11 12 10 8 9 11 14 14 13 13 12 9 10 12 12 13 12 8 8 11 14 13 13 15 17 17 17 13 11 12 12 12 13 12 11 11 10 10 10 11 12 11 10 9 8 8 8 12 15 17 19 22 22 22 23 20 19 20 21 22 24 27 26 25 26 25 23 22 19 18 20 20 21 23 23 22 22 20 21 24 24 25 26 18 14 15 16
11 11 10 10 10 12 14 14 12 10 10 10 8 9 11 12 13 12 9 8 9 10 12 14 15 14 15 18 17 15 13 11 10 9 9 9 9 8 8 8 8 11 13 10 8 8 8 8 10 12 12 16 21 23 24 25 24 23 23 23 23 24 26 26 24 24 24 24 25 26 23 19 16 16 19 23 24 25 24 23 22 21 26 29 23 16 15 16
10 10 11 11 9 10 11 10 8 7 7 7 8 9 10 11 9 9 9 11 13 12 11 10 10 9 8 11 15 15 13 11 10 9 7 6 6 5 5 6 6 7 10 10 9 8 8 8 8 9 9 11 16 22 25 25 25 25 25 24 25 24 22 22 21 21 21 21 23 24 22 17 14 14 17 20 20 20 21 21 22 24 28 27 20 14 13 15
9 9 10 10 9 9 9 8 7 7 6 7 8 8 8 8 8 9 8 9 12 12 9 10 11 8 7 7 7 5 5 7 9 10 9 10 10 11 10 11 11 9 7 7 8 8 8 8 7 7 8 8 11 16 20 21 21 21 20 22 24 23 22 22 21 21 22 20 18 18 17 14 14 16 18 19 20 21 21 22 24 22 18 15 13 11 11 11
Wind_Direction
323 321 319 319 318 317 317 317 317 316 315 315 315 315 315 314 313 310 308 308 309 314 317 319 319 323 331 333 332 334 331 325 318 311 307 301 287 281 278 265 250 243 245 230 204 190 179 182 182 178 177 188 209 212 198 205 210 209 240 246 134 163 168 166 150 125 114 143 153 160 166 161 148 161 156 156 161 152 158 162 165 167 144 144 142 149 156 158
323 322 321 319 317 317 317 316 316 316 314 313 311 310 310 310 310 308 306 303 303 306 308 312 313 318 325 329 334 334 331 327 317 308 299 283 267 288 286 262 244 233 227 213 201 190 180 185 182 180 189 201 207 196 196 198 201 217 250 241 189 137 101 187 166 150 177 152 155 168 171 166 153 158 163 169 162 157 166 163 168 171 146 141 143 151 156 160
325 324 323 321 320 317 317 316 315 315 313 312 310 308 307 306 306 305 304 301 299 298 299 303 305 309 317 323 328 330 331 325 313 302 269 227 292 333 318 271 236 226 220 205 199 197 196 196 186 192 207 223 215 197 209 196 195 225 244 235 185 175 104 228 200 178 175 146 160 170 170 168 155 156 168 176 165 170 185 171 174 177 158 151 152 155 158 162
326 326 324 322 321 320 319 318 316 315 314 312 310 308 306 304 303 303 302 299 297 294 294 296 299 304 310 317 322 329 331 319 297 124 88 275 309 325 324 292 229 213 207 200 204 207 211 207 200 209 220 236 227 215 225 194 190 216 218 238 158 114 266 203 220 202 179 165 170 167 168 168 156 160 173 176 171 184 198 184 182 179 165 159 157 159 162 166
327 326 325 323 322 322 321 320 319 317 315 313 311 309 306 304 302 301 300 299 297 294 292 291 295 299 303 311 315 325 329 317 145 99 335 310 302 310 314 303 243 206 197 197 207 206 210 207 202 213 224 237 228 220 227 206 209 225 212 247 247 267 287 149 226 216 185 180 172 166 172 164 158 170 176 178 181 185 191 186 184 177 167 163 162 163 166 170
326 326 324 324 323 322 322 323 322 320 318 315 312 310 307 304 302 300 299 298 296 294 293 290 292 295 299 306 309 318 319 296 191 307 312 315 306 314 308 256 244 215 197 196 199 199 201 199 198 207 216 230 229 224 226 208 208 233 219 232 244 252 266 245 228 214 192 188 175 170 171 159 164 177 179 187 179 99 176 179 176 173 168 165 164 167 170 175
323 323 322 322 321 321 322 322 322 321 320 317 314 311 307 306 302 301 299 297 296 293 293 290 292 293 296 301 305 308 289 274 291 297 307 327 316 331 321 240 228 230 209 196 195 196 194 194 199 206 211 222 231 229 230 209 196 219 229 216 226 235 248 255 233 209 197 193 178 173 167 163 175 176 176 191 173 91 170 169 167 167 166 167 167 170 174 178
323 321 320 320 319 319 319 320 320 319 319 317 315 312 308 306 302 301 300 297 295 292 291 289 290 292 295 300 302 299 281 275 290 296 311 325 313 322 322 261 237 235 226 208 198 197 194 197 201 204 214 220 228 227 225 219 198 211 232 229 231 236 251 256 229 204 195 191 179 173 167 171 180 170 174 186 163 136 161 159 163 164 165 170 172 174 177 180
323 321 319 319 318 317 317 318 319 317 317 316 313 310 308 306 303 303 301 298 296 292 290 288 289 290 291 295 295 289 280 279 294 301 303 309 310 303 299 281 251 241 235 217 204 202 201 203 204 203 215 225 230 232 221 221 209 205 219 233 244 255 271 255 217 196 188 186 178 173 171 174 175 165 175 180 159 143 155 158 162 164 168 174 176 177 178 182
321 320 319 318 317 316 316 316 317 317 316 313 310 308 306 304 304 304 302 299 296 292 290 288 288 288 288 290 285 278 278 288 300 302 292 291 300 295 284 275 259 250 237 218 208 209 208 208 207 207 225 240 234 236 225 221 228 209 217 235 256 281 281 231 199 183 181 179 177 177 173 170 169 176 182 172 164 151 155 161 164 166 172 176 179 180 180 183
321 321 319 318 317 315 315 315 315 316 314 313 310 306 304 302 302 303 302 299 296 293 291 289 287 286 285 276 260 263 277 290 297 296 288 284 286 283 274 267 259 253 238 220 215 213 212 212 208 208 224 241 233 235 230 225 236 238 233 240 242 256 234 200 185 173 172 175 182 180 166 163 171 197 196 164 167 163 160 164 168 171 173 177 181 181 182 186
321 321 319 318 318 316 315 314 313 314 314 313 309 306 303 301 300 300 299 299 297 294 291 290 287 283 281 263 253 265 278 285 289 289 284 279 273 266 258 254 249 246 238 223 219 214 212 211 207 210 211 221 230 232 226 221 231 239 238 242 222 222 204 184 176 172 174 177 180 170 159 176 186 201 185 159 167 169 167 168 171 175 174 177 182 183 186 189
320 319 318 318 318 317 315 314 312 313 313 312 310 306 303 302 300 297 297 298 297 295 292 290 284 277 273 257 260 279 291 285 283 281 273 266 254 241 235 239 237 245 240 220 219 211 207 207 207 216 219 225 231 230 209 211 225 233 232 241 226 224 206 180 173 177 182 174 172 172 182 199 194 195 174 159 168 171 173 175 175 178 176 178 182 186 189 190
319 317 317 317 317 317 315 314 312 313 315 313 310 307 305 304 299 297 297 297 297 295 292 284 278 269 256 260 277 294 297 279 265 234 243 250 231 220 217 226 229 240 227 202 205 201 202 205 207 220 227 232 237 235 212 207 217 225 225 229 230 235 187 167 174 181 179 164 174 190 229 199 177 180 172 166 171 175 180 181 181 181 180 181 183 187 191 191
320 318 316 316 317 316 314 313 311 313 316 313 311 309 308 305 300 298 296 296 297 294 290 281 269 255 260 275 286 295 277 198 156 142 122 130 199 206 201 210 209 179 168 175 186 193 197 201 206 220 222 223 236 237 219 211 210 216 218 213 219 228 163 159 178 187 176 159 181 201 233 209 164 166 172 173 174 181 189 186 185 186 184 185 184 187 191 191
325 321 318 318 318 317 314 311 309 312 315 314 311 310 310 307 303 300 296 296 295 288 285 279 265 256 276 280 275 261 232 200 171 168 153 111 169 206 190 190 181 167 172 172 176 186 190 195 205 219 218 213 222 226 216 216 213 208 216 222 209 200 179 170 182 192 182 161 183 202 225 220 144 159 173 178 179 184 194 191 190 190 187 188 188 188 190 190
330 327 322 321 321 320 315 311 310 312 315 313 310 310 311 308 305 302 297 293 290 284 275 266 259 264 262 255 253 242 213 191 169 168 181 137 204 216 181 176 178 174 176 178 182 181 185 194 202 213 220 216 212 215 217 215 211 201 210 230 220 203 200 180 171 190 189 174 186 200 220 218 117 148 184 184 184 189 197 198 193 192 190 189 190 191 190 190
333 330 326 325 326 325 319 315 314 314 316 315 311 312 312 308 307 300 293 291 284 277 275 246 212 261 252 229 235 207 180 180 177 199 254 250 245 215 184 180 178 173 176 185 191 187 183 193 200 206 212 214 208 210 217 213 210 205 204 218 223 217 218 194 166 181 190 191 195 196 216 215 140 151 197 189 189 197 201 203 198 195 193 190 191 193 192 193
332 330 327 327 328 329 322 319 320 319 319 319 314 315 315 314 306 290 286 291 263 252 279 214 196 260 288 223 222 210 200 216 231 262 266 239 223 198 188 188 180 177 185 187 186 188 185 189 202 210 206 206 208 210 216 217 215 214 209 214 219 214 213 206 186 178 187 195 202 202 219 219 182 175 191 185 187 201 206 205 204 200 196 193 192 195 194 196
329 328 326 325 328 331 325 322 324 324 323 322 323 323 323 323 304 275 288 278 263 266 278 255 227 255 274 265 256 252 253 252 251 262 247 210 197 189 190 190 186 190 197 191 181 185 191 198 205 210 207 205 207 212 219 224 225 223 217 217 222 226 211 196 187 179 191 203 202 207 222 225 214 194 183 183 184 197 208 208 208 205 201 198 196 196 196 198
327 326 324 323 326 332 327 324 327 329 327 324 335 339 333 333 311 310 323 285 273 270 267 263 248 252 261 261 259 260 264 260 242 236 223 199 192 188 187 187 190 197 200 198 188 184 196 213 211 208 211 210 208 212 219 226 229 229 226 219 220 234 223 180 171 179 200 216 202 203 224 229 227 218 191 190 190 194 204 208 210 208 206 204 201 198 196 198
327 325 323 321 324 331 327 325 329 329 326 322 333 341 316 331 321 324 328 292 282 275 262 264 255 253 261 260 257 254 249 249 234 224 211 190 192 192 182 186 198 198 192 198 194 185 202 220 213 207 211 217 215 214 217 223 227 228 229 228 221 226 221 177 179 186 196 225 212 198 224 234 229 232 215 200 202 202 204 208 211 210 208 207 205 201 198 198
327 326 324 321 323 330 328 325 329 324 322 328 328 322 180 146 4 343 325 285 289 280 254 251 243 246 258 262 254 232 222 233 233 218 196 185 196 199 186 189 203 201 192 197 200 194 206 217 212 207 210 217 218 214 214 220 225 228 229 230 228 224 215 192 194 193 194 223 230 205 221 237 228 229 225 213 214 209 206 211 213 213 211 208 206 204 201 199
328 326 325 322 321 329 331 326 335 334 328 338 339 134 119 46 2 349 318 270 285 272 240 237 235 242 247 246 225 202 209 226 226 208 188 186 195 199 199 199 202 206 199 198 205 213 218 211 206 208 209 213 215 212 214 219 222 227 231 231 234 227 213 203 197 191 201 218 223 210 223 240 232 228 224 219 222 216 207 210 212 213 213 210 208 207 206 203
329 327 325 325 321 326 334 329 343 349 340 357 103 121 69 22 0 351 315 265 275 253 222 219 221 229 216 202 195 191 207 223 218 204 187 190 194 193 201 204 204 211 203 199 207 219 220 196 194 208 207 208 216 216 214 220 224 224 226 230 240 235 215 211 206 193 208 221 207 211 233 240 235 236 225 207 218 217 206 205 208 208 209 210 210 208 209 208
329 327 324 325 321 324 336 334 331 346 357 79 149 150 6 1 359 359 300 263 267 222 162 185 197 187 180 185 185 187 205 205 203 201 189 193 197 194 198 199 206 217 205 200 206 221 215 188 184 207 206 206 216 220 215 216 227 229 220 222 234 239 232 222 213 203 217 229 210 211 232 244 241 240 223 207 219 217 206 205 206 205 205 207 210 210 210 210
327 327 323 323 323 323 331 332 322 340 355 257 256 293 308 335 0 20 230 261 253 189 132 156 171 158 165 176 178 184 186 144 164 189 191 194 196 201 212 198 198 219 206 196 206 209 204 195 190 202 207 209 213 216 212 211 222 231 225 220 222 230 235 227 214 212 226 234 222 212 222 246 251 240 213 206 219 217 210 209 207 206 206 207 210 210 210 211
325 327 321 319 322 321 323 326 323 326 286 265 304 345 287 297 323 18 255 269 213 128 138 150 139 159 169 177 190 211 313 154 182 182 184 193 194 197 217 209 201 213 199 197 209 186 189 200 196 194 203 210 212 213 209 209 221 229 236 235 221 221 229 229 222 222 225 230 229 218 218 237 249 239 208 201 210 215 214 213 211 211 209 208 209 211 210 211
322 327 320 315 316 313 311 315 313 299 288 284 288 296 304 297 275 209 252 266 183 152 158 154 144 165 172 176 202 225 253 226 215 155 167 189 197 199 221 216 209 211 199 207 223 187 183 207 204 196 204 210 211 212 209 210 219 223 235 244 225 220 225 229 233 231 227 229 228 218 212 222 246 235 213 208 214 217 220 223 220 214 212 209 208 209 209 209
318 324 320 313 315 314 309 310 304 285 285 280 252 279 310 271 209 217 227 230 217 162 144 155 157 166 180 185 201 212 217 218 171 150 169 185 196 205 223 219 214 215 202 209 228 219 190 203 207 205 208 208 207 210 211 213 217 217 221 228 223 222 225 229 236 239 239 232 226 226 218 214 238 238 218 212 217 227 231 232 227 217 215 213 208 207 206 205
316 319 317 313 312 311 308 306 302 287 275 264 237 252 277 218 216 237 217 177 296 165 154 178 170 166 192 203 204 191 198 210 175 166 177 179 189 199 207 211 211 214 207 206 221 222 202 192 201 208 206 204 204 206 208 211 215 216 218 222 220 213 216 226 226 229 243 234 220 232 231 222 229 243 237 214 208 232 244 239 235 223 217 216 211 207 204 203
314 314 312 308 302 297 294 289 286 281 271 258 220 217 230 215 226 234 201 102 173 176 173 192 179 182 201 212 224 201 200 210 186 185 189 182 188 194 198 201 192 200 210 202 205 213 211 201 197 199 201 204 204 198 199 202 210 215 217 219 216 207 204 215 217 214 231 235 225 230 232 228 229 236 248 238 209 229 243 240 241 235 222 217 210 206 204 201
313 313 310 305 295 288 282 273 270 269 265 243 216 215 224 228 230 219 199 188 161 138 163 179 179 192 201 213 215 199 212 217 189 195 196 191 196 196 203 208 199 203 214 200 197 201 206 208 204 197 193 201 204 199 194 194 202 210 210 211 213 212 211 212 217 220 225 231 229 228 230 234 237 230 238 243 234 234 239 238 242 247 241 227 211 204 202 199
312 313 311 306 296 286 278 271 262 255 244 217 208 209 217 231 231 204 204 210 193 115 152 159 185 205 211 227 222 193 221 217 188 199 199 194 204 201 203 208 205 210 220 207 203 202 204 207 205 203 190 191 201 209 205 194 198 207 209 214 219 219 221 218 216 221 226 228 222 217 219 230 238 233 227 236 241 240 241 241 242 244 240 231 215 203 200 199
313 315 311 306 294 278 272 267 251 235 213 199 205 213 217 226 225 213 217 216 218 212 188 180 216 228 223 227 228 214 224 219 189 204 209 200 207 204 200 206 204 206 216 212 202 205 217 219 200 202 200 189 198 209 209 200 197 203 209 217 221 219 227 233 231 232 236 236 224 212 214 229 240 245 226 225 237 235 234 237 238 235 223 216 213 205 201 200
316 318 316 308 287 268 267 257 234 211 200 202 215 222 222 225 225 222 217 213 225 227 217 214 221 236 238 229 227 207 201 221 205 204 217 211 214 210 202 204 200 202 212 215 199 199 220 226 192 195 204 201 200 202 204 208 203 193 205 217 220 220 228 235 234 242 248 239 229 213 214 228 236 242 233 230 237 234 229 231 236 236 220 207 207 204 203 202
323 325 324 304 246 227 279 266 226 204 203 217 227 229 228 230 234 237 227 213 228 225 226 229 215 223 231 230 231 207 190 207 207 207 221 209 211 213 206 204 199 202 212 217 214 206 220 232 192 190 204 202 199 201 204 214 218 201 203 210 213 221 233 240 231 227 231 234 234 223 222 227 228 231 230 231 236 238 237 239 241 238 219 208 208 203 202 203
330 328 322 276 216 222 262 316 240 200 206 227 235 238 241 235 232 235 233 229 241 228 226 231 212 210 224 230 224 199 188 195 193 205 222 206 201 205 204 204 196 200 210 215 220 203 207 238 201 189 202 197 192 204 206 210 217 222 218 203 204 215 219 226 231 227 225 228 235 233 230 232 231 228 221 217 224 231 233 235 237 230 214 212 213 204 201 201
337 327 308 223 222 240 262 323 313 201 211 227 232 236 240 242 238 236 239 243 250 243 234 238 229 217 224 233 222 184 190 203 190 195 212 199 183 188 199 207 194 196 206 209 220 210 195 235 216 184 195 196 191 206 210 200 207 222 230 211 209 221 216 216 224 231 234 232 231 233 232 229 229 235 233 221 220 229 232 233 232 220 212 216 212 205 202 199
342 316 265 228 249 257 286 319 272 214 222 229 235 238 235 241 240 236 239 243 246 244 239 241 239 233 227 233 239 212 204 217 210 206 209 191 171 177 204 212 195 194 203 206 217 224 196 216 230 185 189 201 198 202 211 206 196 207 219 216 213 215 215 223 222 221 232 238 236 236 235 227 217 224 232 234 235 238 243 247 244 240 239 232 219 206 198 196
336 293 238 251 275 285 301 300 243 226 234 233 239 245 243 250 248 238 236 236 240 243 244 245 243 240 234 230 235 228 218 227 225 226 224 203 201 201 204 214 206 195 199 204 210 218 204 204 226 204 187 205 210 201 209 215 211 204 205 212 218 211 207 222 224 220 225 232 237 242 242 237 223 199 206 230 239 235 236 241 240 242 245 242 228 209 196 194
311 268 279 294 292 296 294 269 237 235 239 238 245 248 249 256 256 250 243 236 236 237 238 244 245 243 242 235 233 231 229 236 231 228 231 217 216 211 151 190 220 208 202 209 208 208 210 207 221 223 206 211 215 208 208 215 220 220 212 209 217 216 214 221 222 220 224 227 232 241 243 239 230 172 182 221 229 230 238 245 245 244 244 244 240 220 200 195
292 284 299 297 282 270 254 251 251 241 236 244 252 253 252 251 248 249 246 237 235 231 227 232 233 234 239 236 233 233 230 236 238 234 237 233 225 227 180 156 214 213 203 211 208 200 206 214 217 228 229 218 217 217 214 212 216 224 221 213 215 216 218 226 226 223 229 228 225 234 238 231 207 127 174 225 218 225 244 252 252 251 249 244 233 214 200 197
298 290 292 289 256 226 229 249 255 247 248 247 247 250 251 250 248 246 242 236 231 228 228 227 226 227 232 232 232 233 229 230 238 234 238 243 231 226 217 197 218 214 195 219 224 192 194 206 206 217 227 217 214 216 210 204 208 223 225 219 219 218 218 225 226 224 232 229 225 231 234 226 211 182 199 226 226 241 255 252 246 245 251 249 233 213 211 208
303 287 272 258 226 217 231 259 272 272 269 259 257 262 256 250 248 243 243 244 240 238 238 232 227 225 227 229 230 232 230 231 235 227 227 234 225 216 212 211 226 218 192 357 345 193 194 205 202 212 219 211 210 212 207 201 203 218 226 224 224 221 219 222 222 223 230 225 225 234 235 227 225 217 217 228 235 250 262 264 254 243 244 245 231 218 222 216
304 293 275 263 236 228 239 256 262 260 267 270 271 269 259 253 249 240 238 243 243 244 248 242 232 226 221 223 226 227 226 227 232 230 227 228 217 198 180 190 223 224 359 346 329 204 212 219 207 215 224 222 219 216 214 214 211 214 218 222 226 225 223 225 223 226 230 222 225 238 241 237 230 218 217 224 226 237 249 258 267 265 259 252 236 227 225 216
286 281 298 308 285 266 256 251 252 262 282 284 279 275 270 266 263 245 232 236 238 238 243 243 235 228 219 217 221 225 225 225 227 232 234 236 235 215 186 206 229 222 336 281 232 206 233 226 209 216 227 232 234 228 224 224 224 222 219 219 222 224 225 227 228 229 230 229 230 225 225 239 239 228 225 220 212 227 239 246 257 264 267 265 249 232 227 215
274 279 307 321 301 281 284 298 316 320 305 294 281 275 275 270 269 261 239 239 239 233 233 234 230 229 228 224 225 226 226 226 227 230 232 235 243 250 245 240 229 211 217 231 214 211 236 228 217 222 228 233 236 235 233 233 232 232 230 226 223 221 224 230 232 232 231 235 239 220 205 226 236 234 235 231 225 235 239 241 247 251 259 264 248 219 218 211
281 281 298 310 292 287 303 311 313 306 294 291 280 267 269 267 265 264 259 255 246 234 232 235 231 228 230 232 235 231 226 226 227 225 224 227 232 239 246 245 233 221 223 225 210 212 232 230 225 233 239 240 240 240 239 239 236 234 235 235 232 226 225 228 232 234 234 237 243 237 224 224 228 229 235 239 242 248 249 245 246 248 258 265 255 229 221 210
286 287 296 306 296 288 289 289 290 289 282 279 271 264 267 265 266 271 270 264 259 246 234 234 237 238 235 233 233 233 230 235 242 232 219 221 224 226 236 246 239 222 219 220 205 204 223 221 215 231 245 241 239 241 240 240 239 236 233 233 236 235 231 229 229 230 234 237 239 240 239 235 229 227 235 239 240 247 250 246 244 246 251 256 255 245 234 217
275 284 289 291 288 279 275 271 267 273 274 265 263 265 261 261 282 311 301 271 265 265 262 264 273 283 270 241 231 233 235 240 255 259 250 244 250 257 257 260 260 236 219 214 200 197 219 221 207 223 241 237 234 234 235 238 240 239 235 230 230 234 235 234 231 227 228 231 232 235 239 239 230 227 235 237 234 240 246 245 243 242 244 248 253 255 250 235
265 272 271 269 273 273 274 274 264 260 262 258 264 272 267 271 308 332 314 274 260 263 291 325 331 320 296 262 243 258 288 286 285 288 285 278 274 273 270 268 272 272 248 223 208 206 223 225 212 219 236 242 241 236 234 237 238 236 233 229 228 231 233 236 236 233 230 229 228 231 234 234 232 230 232 232 230 234 238 238 240 240 239 246 255 262 262 249
Height
1531 1531 1530 1528 1528 1527 1525 1524 1524 1523 1521 1520 1519 1519 1518 1517 1517 1516 1516 1515 1514 1513 1513 1512 1511 1510 1509 1508 1507 1506 1504 1503 1503 1502 1501 1501 1502 1501 1501 1501 1502 1503 1504 1506 1507 1508 1509 1510 1511 1512 1513 1513 1513 1511 1511 1511 1510 1511 1509 1512 1517 1516 1514 1507 1507 1510 1509 1510 1512 1514 1516 1518 1522 1525 1527 1529 1530 1531 1534 1535 1537 1539 1540 1541 1543 1545 1548 1550
1530 1529 1528 1527 1526 1525 1525 1524 1523 1522 1520 1519 1518 1518 1517 1516 1515 1515 1514 1514 1513 1512 1511 1511 1510 1509 1508 1507 1506 1505 1503 1502 1500 1499 1498 1499 1499 1499 1499 1499 1500 1501 1503 1504 1506 1508 1509 1510 1511 1511 1512 1511 1510 1509 1509 1508 1509 1509 1507 1511 1515 1509 1505 1500 1500 1503 1504 1507 1510 1513 1516 1517 1520 1523 1526 1528 1528 1531 1533 1534 1537 1539 1540 1542 1544 1546 1548 1550
1529 1528 1527 1526 1525 1524 1523 1522 1521 1520 1519 1518 1517 1516 1515 1514 1514 1513 1513 1512 1511 1511 1510 1510 1509 1508 1507 1506 1505 1504 1502 1499 1497 1497 1496 1497 1497 1497 1497 1497 1497 1499 1501 1504 1506 1508 1509 1510 1510 1511 1511 1509 1507 1508 1507 1506 1507 1505 1505 1512 1509 1500 1499 1499 1498 1501 1502 1505 1507 1512 1515 1516 1519 1523 1525 1526 1527 1530 1530 1532 1534 1536 1539 1541 1543 1546 1548 1550
1528 1527 1526 1525 1524 1523 1522 1521 1520 1519 1518 1517 1516 1515 1514 1513 1512 1512 1511 1511 1510 1510 1509 1508 1508 1507 1506 1505 1505 1504 1502 1498 1494 1495 1495 1496 1496 1496 1496 1495 1495 1497 1499 1503 1505 1507 1508 1509 1510 1510 1510 1507 1505 1506 1505 1505 1505 1502 1504 1508 1501 1496 1499 1499 1499 1500 1501 1504 1506 1510 1514 1516 1519 1522 1523 1523 1527 1530 1527 1529 1531 1533 1537 1540 1543 1545 1547 1550
1527 1526 1525 1524 1522 1521 1520 1519 1518 1517 1516 1515 1514 1513 1512 1512 1511 1510 1510 1509 1509 1508 1508 1507 1506 1506 1505 1505 1504 1503 1503 1498 1493 1494 1495 1495 1495 1495 1495 1495 1495 1496 1498 1502 1503 1505 1507 1508 1509 1509 1508 1505 1503 1504 1502 1501 1502 1502 1503 1500 1496 1497 1499 1498 1499 1500 1501 1503 1505 1509 1512 1515 1518 1521 1522 1522 1525 1525 1524 1527 1530 1533 1536 1539 1542 1544 1547 1550
1526 1525 1524 1523 1521 1520 1519 1518 1517 1516 1515 1514 1513 1512 1511 1510 1509 1509 1508 1508 1507 1507 1506 1506 1505 1505 1504 1504 1503 1503 1504 1499 1494 1494 1494 1494 1494 1493 1494 1494 1495 1496 1497 1500 1502 1504 1505 1506 1507 1506 1505 1503 1501 1500 1499 1499 1501 1504 1502 1497 1496 1498 1498 1497 1498 1499 1501 1502 1504 1508 1511 1513 1517 1519 1520 1521 1521 1522 1523 1526 1529 1533 1536 1538 1541 1544 1546 1549
1525 1524 1523 1521 1520 1519 1518 1517 1516 1515 1514 1512 1511 1510 1509 1508 1507 1507 1506 1506 1505 1505 1504 1504 1504 1503 1503 1503 1501 1501 1501 1497 1494 1494 1493 1493 1493 1493 1493 1494 1495 1496 1497 1498 1500 1502 1503 1504 1504 1503 1503 1502 1500 1497 1496 1496 1499 1504 1502 1495 1496 1497 1496 1496 1497 1498 1501 1502 1504 1507 1509 1512 1516 1517 1520 1520 1521 1523 1524 1526 1529 1532 1536 1539 1541 1543 1546 1548
1524 1522 1521 1520 1519 1518 1517 1516 1515 1514 1512 1511 1510 1508 1507 1506 1505 1505 1504 1504 1503 1503 1502 1502 1502 1502 1502 1501 1500 1499 1497 1495 1494 1493 1492 1492 1492 1492 1493 1493 1494 1495 1496 1497 1499 1500 1502 1501 1501 1501 1501 1499 1497 1495 1494 1496 1497 1501 1500 1495 1494 1495 1494 1495 1496 1498 1500 1502 1504 1506 1508 1512 1514 1515 1517 1519 1521 1524 1524 1526 1530 1532 1535 1538 1540 1543 1545 1548
1522 1521 1520 1518 1517 1516 1515 1514 1514 1512 1511 1510 1508 1507 1505 1504 1503 1503 1502 1502 1501 1501 1500 1500 1500 1500 1500 1500 1500 1497 1493 1492 1492 1491 1491 1491 1491 1491 1492 1492 1492 1493 1494 1496 1498 1500 1500 1499 1499 1499 1499 1496 1495 1493 1492 1497 1498 1495 1496 1493 1491 1492 1492 1494 1495 1497 1500 1501 1503 1506 1508 1510 1513 1515 1517 1518 1521 1524 1525 1527 1529 1532 1535 1537 1540 1542 1544 1547
1521 1520 1519 1517 1516 1514 1513 1513 1512 1511 1510 1508 1507 1506 1504 1503 1501 1501 1500 1499 1499 1498 1498 1498 1498 1498 1498 1498 1499 1495 1490 1490 1490 1489 1489 1489 1490 1490 1491 1491 1491 1492 1493 1495 1496 1497 1497 1498 1499 1499 1499 1496 1494 1493 1491 1495 1494 1490 1491 1491 1491 1492 1492 1493 1494 1496 1499 1500 1503 1505 1507 1509 1512 1516 1517 1517 1520 1523 1524 1527 1529 1531 1534 1536 1539 1541 1543 1546
1520 1519 1517 1516 1515 1513 1512 1511 1510 1509 1508 1506 1505 1504 1503 1501 1500 1499 1498 1497 1497 1496 1496 1496 1496 1496 1495 1496 1496 1490 1487 1488 1487 1487 1487 1487 1488 1488 1489 1490 1490 1491 1492 1493 1494 1495 1497 1498 1499 1500 1500 1497 1494 1493 1490 1491 1491 1489 1491 1492 1491 1491 1492 1492 1492 1495 1497 1500 1502 1502 1505 1509 1512 1515 1513 1514 1519 1522 1523 1526 1528 1530 1532 1535 1538 1540 1542 1544
1518 1517 1516 1514 1513 1511 1510 1509 1508 1507 1506 1505 1503 1502 1501 1500 1498 1497 1496 1495 1495 1494 1494 1493 1494 1493 1493 1493 1490 1485 1486 1487 1485 1485 1484 1484 1485 1486 1487 1488 1488 1489 1490 1492 1493 1494 1496 1498 1499 1499 1497 1496 1494 1493 1491 1489 1490 1490 1491 1494 1493 1491 1493 1492 1491 1495 1496 1499 1501 1502 1512 1515 1513 1512 1509 1512 1518 1520 1522 1524 1526 1529 1531 1534 1536 1539 1541 1542
1517 1515 1514 1513 1511 1510 1508 1507 1506 1505 1504 1503 1501 1500 1499 1497 1496 1495 1494 1493 1492 1492 1491 1491 1491 1491 1492 1489 1483 1482 1483 1483 1481 1481 1481 1481 1482 1483 1485 1486 1486 1488 1488 1490 1491 1493 1495 1497 1498 1497 1495 1495 1492 1491 1490 1488 1490 1491 1489 1492 1496 1498 1498 1491 1490 1494 1495 1499 1499 1504 1519 1518 1508 1507 1508 1512 1516 1518 1521 1522 1524 1527 1529 1532 1534 1537 1538 1540
1515 1514 1512 1511 1510 1508 1506 1505 1503 1503 1502 1501 1499 1498 1496 1496 1494 1493 1492 1491 1490 1489 1489 1489 1489 1489 1489 1484 1480 1480 1480 1479 1479 1479 1479 1480 1480 1481 1483 1484 1485 1486 1486 1488 1490 1492 1494 1496 1498 1497 1495 1494 1490 1489 1489 1487 1489 1490 1490 1493 1497 1502 1499 1489 1489 1493 1495 1500 1498 1504 1517 1511 1500 1502 1506 1510 1513 1515 1518 1519 1522 1525 1527 1530 1532 1534 1536 1538
1514 1512 1511 1510 1508 1507 1505 1503 1501 1500 1500 1499 1497 1496 1494 1494 1492 1491 1490 1488 1488 1487 1487 1487 1487 1488 1486 1480 1477 1478 1477 1478 1478 1478 1479 1479 1479 1480 1481 1483 1484 1485 1486 1488 1490 1491 1493 1495 1497 1495 1493 1493 1492 1491 1491 1489 1487 1487 1496 1501 1495 1496 1497 1491 1489 1490 1495 1499 1497 1504 1514 1507 1497 1499 1504 1508 1510 1513 1515 1517 1520 1522 1525 1527 1529 1532 1534 1536
1512 1511 1509 1508 1507 1505 1503 1502 1500 1499 1498 1496 1495 1493 1492 1491 1490 1489 1487 1486 1486 1485 1485 1486 1485 1487 1485 1478 1475 1476 1476 1477 1477 1478 1479 1478 1479 1480 1480 1482 1483 1485 1486 1487 1489 1490 1492 1494 1494 1493 1491 1491 1491 1491 1492 1494 1492 1487 1495 1500 1491 1491 1497 1495 1491 1486 1489 1496 1497 1502 1508 1505 1498 1498 1503 1506 1507 1511 1512 1514 1517 1520 1522 1525 1528 1529 1532 1534
1511 1509 1507 1507 1506 1504 1502 1500 1499 1498 1497 1495 1493 1492 1490 1489 1487 1486 1485 1484 1483 1483 1484 1483 1484 1486 1481 1474 1474 1475 1475 1476 1476 1477 1478 1478 1479 1479 1480 1481 1482 1484 1485 1487 1489 1489 1491 1491 1492 1491 1489 1487 1486 1488 1495 1501 1498 1491 1492 1493 1486 1486 1491 1494 1494 1487 1485 1493 1498 1500 1503 1503 1499 1500 1504 1505 1506 1508 1510 1511 1514 1517 1520 1523 1525 1527 1529 1532
1509 1507 1506 1505 1504 1503 1500 1499 1497 1496 1495 1493 1491 1490 1489 1487 1485 1484 1482 1482 1481 1482 1482 1481 1483 1484 1475 1470 1472 1472 1473 1474 1474 1475 1477 1477 1478 1478 1479 1480 1481 1483 1484 1486 1487 1487 1489 1488 1487 1488 1487 1486 1483 1486 1495 1497 1492 1490 1491 1492 1488 1485 1486 1489 1492 1488 1485 1492 1496 1500 1504 1501 1500 1504 1505 1504 1504 1506 1507 1509 1512 1514 1518 1520 1523 1525 1527 1529
1508 1506 1504 1503 1502 1501 1499 1497 1496 1494 1493 1492 1490 1489 1487 1485 1484 1482 1481 1480 1480 1479 1478 1477 1478 1476 1470 1468 1470 1470 1471 1472 1471 1472 1474 1475 1477 1477 1478 1479 1480 1481 1481 1483 1483 1483 1484 1485 1486 1487 1485 1484 1481 1480 1485 1483 1480 1482 1483 1486 1487 1486 1485 1484 1484 1481 1482 1492 1495 1498 1502 1499 1500 1504 1502 1501 1502 1504 1506 1507 1509 1512 1514 1517 1520 1522 1524 1526
1507 1505 1503 1501 1501 1500 1497 1496 1495 1493 1492 1491 1489 1488 1486 1484 1481 1479 1479 1478 1476 1473 1471 1472 1472 1467 1465 1466 1468 1468 1469 1469 1469 1470 1471 1473 1474 1475 1476 1477 1477 1478 1477 1478 1479 1479 1481 1485 1485 1484 1480 1478 1477 1475 1476 1474 1473 1475 1477 1481 1482 1482 1481 1477 1479 1479 1479 1490 1494 1493 1497 1496 1495 1495 1495 1498 1500 1501 1504 1505 1507 1509 1512 1515 1517 1519 1521 1523
1506 1504 1502 1500 1499 1498 1496 1494 1493 1492 1491 1489 1489 1488 1487 1486 1483 1481 1480 1475 1470 1470 1467 1467 1467 1463 1461 1463 1464 1465 1466 1466 1466 1467 1469 1470 1472 1473 1473 1473 1474 1475 1474 1472 1475 1476 1480 1483 1480 1476 1474 1472 1473 1473 1474 1474 1473 1474 1477 1479 1481 1482 1477 1471 1477 1481 1480 1487 1489 1488 1493 1494 1490 1489 1490 1494 1497 1498 1500 1502 1504 1507 1509 1512 1514 1516 1519 1521
1505 1503 1501 1499 1498 1497 1495 1493 1492 1491 1489 1489 1488 1488 1487 1487 1486 1485 1484 1474 1465 1465 1464 1462 1463 1459 1456 1459 1460 1462 1464 1462 1462 1463 1465 1467 1469 1468 1468 1469 1471 1471 1469 1470 1473 1478 1481 1479 1473 1470 1469 1469 1470 1470 1473 1475 1475 1477 1477 1478 1481 1478 1474 1475 1479 1482 1484 1489 1488 1486 1493 1493 1487 1486 1486 1489 1493 1494 1496 1499 1501 1504 1506 1509 1511 1514 1516 1518
1504 1501 1499 1498 1496 1496 1494 1491 1491 1489 1488 1488 1487 1487 1487 1486 1486 1485 1486 1478 1463 1458 1458 1457 1457 1455 1454 1456 1456 1458 1459 1457 1457 1459 1460 1464 1465 1464 1465 1466 1467 1467 1467 1469 1472 1478 1481 1475 1468 1466 1467 1470 1472 1471 1473 1475 1475 1477 1477 1480 1481 1473 1476 1486 1486 1484 1486 1488 1484 1484 1491 1491 1486 1485 1484 1486 1489 1490 1493 1496 1498 1501 1503 1505 1508 1511 1513 1514
1502 1499 1498 1495 1494 1494 1492 1490 1490 1488 1487 1486 1486 1486 1486 1486 1486 1484 1484 1478 1462 1453 1452 1453 1453 1452 1452 1453 1452 1453 1454 1453 1454 1455 1457 1459 1460 1462 1462 1461 1464 1465 1464 1466 1469 1473 1472 1465 1462 1464 1467 1470 1475 1474 1474 1477 1477 1475 1474 1476 1478 1472 1474 1483 1483 1484 1486 1484 1480 1485 1498 1497 1488 1488 1487 1486 1487 1486 1489 1492 1494 1497 1500 1503 1505 1507 1509 1511
1501 1499 1496 1494 1493 1492 1492 1490 1488 1488 1487 1485 1486 1485 1485 1486 1484 1484 1483 1476 1462 1450 1447 1449 1449 1449 1449 1450 1450 1450 1451 1451 1451 1452 1453 1454 1456 1458 1458 1458 1461 1463 1462 1463 1467 1469 1466 1460 1461 1465 1467 1471 1476 1475 1473 1476 1478 1476 1471 1470 1471 1469 1470 1476 1479 1484 1495 1496 1484 1489 1511 1508 1489 1486 1486 1485 1488 1487 1485 1486 1490 1493 1496 1499 1501 1502 1505 1508
1500 1498 1495 1493 1491 1490 1491 1489 1488 1488 1486 1486 1486 1484 1485 1485 1483 1485 1482 1474 1462 1446 1443 1447 1446 1446 1446 1447 1448 1449 1451 1449 1447 1449 1450 1452 1454 1455 1457 1457 1457 1459 1457 1459 1463 1464 1460 1457 1461 1465 1468 1471 1474 1474 1470 1471 1479 1479 1467 1463 1467 1467 1470 1474 1476 1485 1499 1500 1485 1484 1508 1512 1493 1484 1480 1480 1486 1487 1484 1482 1484 1488 1491 1493 1495 1498 1500 1503
1499 1497 1494 1492 1490 1489 1489 1489 1488 1488 1486 1487 1485 1484 1485 1483 1483 1485 1481 1477 1461 1441 1440 1444 1443 1444 1444 1445 1446 1447 1450 1446 1444 1447 1447 1450 1452 1453 1456 1454 1455 1456 1451 1456 1465 1460 1455 1458 1462 1464 1466 1469 1471 1471 1467 1467 1477 1476 1460 1458 1465 1469 1472 1473 1476 1485 1488 1487 1484 1482 1495 1509 1502 1485 1476 1478 1487 1489 1484 1480 1479 1481 1484 1487 1489 1492 1495 1498
1497 1495 1492 1490 1490 1489 1487 1488 1487 1485 1487 1486 1484 1485 1484 1482 1485 1483 1482 1482 1458 1435 1437 1441 1441 1443 1443 1444 1445 1443 1443 1442 1443 1446 1445 1449 1450 1451 1453 1450 1453 1454 1448 1456 1465 1456 1451 1457 1460 1461 1465 1466 1465 1464 1461 1464 1472 1469 1456 1456 1461 1465 1470 1470 1474 1481 1479 1486 1496 1489 1490 1508 1506 1485 1475 1478 1487 1489 1482 1475 1474 1474 1476 1480 1483 1487 1490 1494
1495 1494 1491 1489 1488 1487 1486 1486 1485 1484 1485 1484 1484 1486 1482 1483 1485 1478 1482 1480 1449 1430 1435 1438 1440 1443 1441 1443 1443 1440 1439 1439 1441 1443 1444 1448 1447 1448 1450 1447 1448 1452 1449 1454 1458 1452 1450 1453 1453 1456 1461 1460 1458 1457 1456 1461 1467 1461 1457 1459 1461 1462 1466 1468 1472 1475 1478 1487 1495 1488 1486 1503 1504 1485 1477 1481 1484 1483 1477 1470 1467 1467 1471 1474 1476 1481 1485 1489
1492 1492 1490 1487 1486 1485 1484 1483 1484 1483 1483 1484 1484 1484 1483 1485 1482 1479 1485 1473 1442 1431 1435 1435 1437 1438 1438 1441 1440 1438 1438 1437 1438 1440 1443 1445 1446 1446 1447 1446 1446 1448 1451 1453 1453 1448 1445 1447 1448 1450 1453 1453 1453 1454 1453 1456 1459 1457 1461 1466 1467 1467 1466 1469 1470 1473 1483 1488 1486 1480 1476 1491 1500 1483 1470 1474 1474 1471 1469 1465 1462 1462 1466 1468 1470 1474 1478 1483
1490 1489 1488 1486 1484 1484 1483 1481 1482 1482 1482 1483 1483 1483 1485 1482 1476 1477 1476 1455 1437 1434 1433 1433 1435 1434 1435 1438 1437 1436 1435 1435 1434 1438 1442 1442 1444 1446 1446 1447 1448 1449 1453 1454 1452 1448 1445 1449 1448 1445 1447 1447 1451 1454 1453 1453 1455 1459 1466 1469 1475 1477 1476 1479 1478 1481 1495 1494 1484 1478 1471 1481 1497 1483 1462 1459 1460 1460 1460 1459 1457 1458 1461 1464 1465 1468 1472 1476
1487 1487 1486 1484 1482 1481 1481 1480 1479 1480 1481 1481 1482 1482 1483 1480 1475 1468 1456 1442 1437 1434 1429 1431 1432 1431 1434 1435 1435 1433 1432 1433 1431 1433 1437 1438 1441 1442 1443 1444 1445 1452 1457 1453 1452 1451 1447 1447 1444 1443 1444 1444 1450 1457 1457 1457 1457 1461 1466 1471 1481 1488 1491 1497 1493 1490 1497 1490 1476 1472 1470 1476 1482 1472 1458 1452 1452 1454 1452 1451 1451 1451 1454 1458 1461 1464 1467 1471
1484 1483 1482 1482 1480 1478 1478 1478 1477 1478 1479 1479 1481 1480 1478 1479 1469 1453 1444 1440 1434 1427 1424 1428 1429 1430 1433 1434 1432 1430 1430 1431 1428 1429 1431 1432 1436 1438 1437 1435 1435 1445 1451 1448 1451 1453 1451 1448 1442 1443 1444 1440 1445 1453 1458 1459 1459 1461 1464 1470 1480 1487 1498 1506 1498 1492 1493 1484 1469 1464 1469 1476 1473 1462 1453 1449 1448 1447 1445 1446 1447 1447 1449 1454 1456 1460 1464 1467
1481 1480 1479 1478 1477 1475 1474 1475 1475 1476 1477 1478 1479 1477 1476 1473 1456 1441 1440 1435 1426 1423 1424 1427 1429 1431 1432 1431 1428 1426 1429 1428 1424 1427 1429 1430 1435 1435 1434 1433 1431 1436 1440 1443 1446 1448 1454 1454 1443 1440 1441 1438 1439 1442 1445 1449 1454 1456 1454 1460 1469 1472 1483 1492 1488 1488 1488 1479 1469 1466 1471 1478 1473 1457 1445 1441 1441 1440 1441 1443 1444 1446 1448 1451 1453 1456 1460 1462
1478 1477 1476 1474 1474 1472 1472 1473 1473 1474 1476 1476 1475 1472 1468 1461 1447 1439 1437 1429 1424 1425 1424 1425 1429 1432 1431 1428 1424 1422 1427 1426 1421 1425 1427 1427 1430 1429 1429 1430 1429 1432 1436 1441 1441 1440 1449 1448 1433 1430 1432 1433 1438 1436 1433 1442 1453 1453 1448 1455 1461 1457 1463 1470 1470 1469 1471 1473 1469 1466 1469 1466 1456 1445 1436 1438 1439 1437 1439 1440 1440 1444 1445 1447 1450 1451 1455 1457
1475 1474 1474 1472 1471 1471 1470 1470 1471 1472 1474 1474 1471 1463 1453 1445 1439 1435 1430 1426 1425 1425 1425 1427 1429 1432 1431 1426 1422 1422 1424 1424 1422 1424 1424 1423 1423 1421 1422 1423 1422 1426 1430 1435 1437 1438 1446 1442 1426 1427 1430 1428 1432 1432 1429 1437 1446 1448 1449 1453 1449 1444 1451 1463 1466 1461 1464 1475 1468 1459 1466 1460 1450 1446 1438 1437 1440 1436 1437 1438 1437 1439 1441 1444 1446 1447 1450 1452
1473 1472 1471 1470 1470 1469 1468 1468 1469 1470 1472 1470 1464 1452 1441 1436 1433 1430 1426 1425 1425 1423 1427 1430 1426 1426 1428 1425 1421 1420 1422 1423 1422 1424 1423 1420 1419 1416 1416 1417 1416 1420 1422 1425 1430 1431 1438 1439 1426 1427 1433 1427 1426 1430 1428 1428 1432 1441 1449 1446 1440 1442 1447 1454 1466 1468 1473 1481 1467 1454 1463 1462 1459 1457 1441 1435 1441 1438 1435 1434 1432 1433 1437 1440 1440 1442 1445 1447
1471 1470 1468 1467 1468 1467 1467 1467 1466 1468 1470 1467 1458 1447 1439 1435 1431 1428 1427 1427 1426 1424 1426 1428 1422 1419 1422 1422 1417 1414 1419 1421 1419 1422 1420 1417 1416 1410 1410 1414 1412 1415 1416 1420 1426 1424 1430 1439 1428 1423 1430 1427 1424 1431 1434 1428 1425 1431 1434 1431 1437 1454 1459 1456 1463 1469 1473 1480 1471 1458 1457 1456 1455 1451 1440 1437 1440 1436 1433 1431 1429 1429 1432 1435 1436 1438 1441 1443
1472 1470 1467 1465 1466 1466 1465 1466 1465 1466 1466 1460 1452 1445 1438 1434 1430 1429 1428 1427 1427 1427 1426 1424 1420 1418 1419 1417 1413 1412 1417 1417 1415 1418 1417 1416 1415 1407 1404 1409 1409 1412 1413 1416 1423 1421 1424 1438 1433 1420 1422 1426 1426 1431 1436 1433 1428 1428 1427 1427 1433 1443 1450 1452 1455 1459 1464 1470 1470 1465 1459 1452 1445 1438 1435 1436 1434 1431 1431 1429 1425 1425 1428 1431 1432 1434 1437 1440
1474 1471 1466 1464 1465 1465 1464 1465 1464 1464 1460 1451 1444 1439 1434 1431 1429 1428 1429 1428 1427 1426 1426 1423 1421 1421 1419 1416 1413 1412 1414 1414 1413 1416 1415 1413 1414 1410 1404 1403 1406 1409 1410 1412 1418 1418 1421 1434 1435 1422 1419 1425 1428 1426 1427 1427 1429 1432 1434 1436 1435 1432 1437 1444 1444 1445 1454 1462 1465 1464 1460 1447 1432 1426 1428 1429 1428 1428 1428 1427 1424 1422 1424 1427 1429 1430 1433 1436
1475 1471 1465 1463 1464 1464 1464 1464 1461 1457 1451 1444 1438 1434 1431 1430 1427 1426 1427 1427 1426 1424 1423 1422 1420 1419 1418 1417 1415 1412 1413 1415 1414 1415 1414 1410 1412 1412 1404 1400 1401 1405 1409 1413 1416 1416 1420 1429 1432 1427 1423 1426 1422 1415 1415 1418 1419 1424 1430 1434 1433 1431 1438 1450 1449 1440 1442 1451 1454 1456 1458 1444 1420 1413 1420 1424 1423 1422 1422 1423 1422 1421 1421 1423 1425 1428 1429 1431
1474 1469 1463 1463 1463 1462 1463 1460 1454 1449 1444 1438 1434 1432 1430 1429 1428 1426 1425 1424 1424 1422 1421 1420 1419 1417 1417 1415 1414 1412 1413 1414 1413 1413 1412 1409 1408 1407 1402 1400 1400 1400 1405 1411 1411 1409 1413 1421 1428 1427 1421 1419 1414 1407 1409 1412 1411 1414 1419 1423 1426 1427 1433 1445 1450 1445 1439 1439 1440 1445 1452 1440 1414 1407 1416 1419 1418 1417 1417 1418 1418 1419 1420 1420 1424 1427 1427 1428
1473 1467 1462 1461 1460 1461 1462 1456 1448 1443 1438 1434 1432 1430 1429 1428 1427 1425 1424 1422 1421 1420 1419 1418 1416 1417 1416 1413 1413 1413 1412 1412 1411 1410 1410 1408 1405 1402 1401 1402 1402 1400 1402 1408 1407 1405 1410 1418 1427 1428 1420 1413 1409 1405 1405 1406 1410 1415 1414 1413 1417 1421 1424 1427 1432 1438 1438 1436 1439 1447 1451 1437 1414 1408 1415 1415 1414 1415 1415 1416 1418 1419 1420 1421 1424 1426 1425 1426
1472 1466 1461 1459 1458 1459 1458 1452 1444 1438 1433 1431 1430 1429 1427 1426 1425 1423 1422 1420 1418 1417 1416 1413 1413 1413 1412 1411 1412 1411 1411 1413 1411 1408 1408 1409 1405 1401 1400 1402 1403 1401 1401 1405 1402 1402 1410 1418 1424 1432 1434 1429 1424 1419 1413 1409 1412 1416 1412 1409 1410 1412 1417 1420 1422 1431 1435 1431 1434 1444 1446 1434 1416 1410 1414 1414 1414 1415 1414 1415 1417 1417 1419 1421 1422 1422 1422 1423
1471 1464 1459 1456 1457 1457 1454 1448 1443 1438 1434 1432 1431 1430 1428 1424 1422 1421 1420 1418 1416 1414 1413 1410 1409 1409 1409 1409 1410 1409 1408 1410 1409 1406 1406 1406 1403 1399 1400 1402 1402 1399 1399 1403 1400 1398 1407 1414 1418 1427 1437 1440 1437 1428 1419 1413 1413 1414 1411 1409 1408 1407 1412 1418 1422 1431 1433 1427 1428 1432 1433 1428 1416 1411 1414 1414 1414 1416 1414 1412 1413 1414 1416 1417 1418 1419 1419 1420
1471 1465 1458 1454 1453 1452 1450 1446 1443 1441 1438 1436 1435 1432 1427 1423 1420 1419 1419 1418 1416 1414 1412 1409 1407 1406 1407 1408 1409 1409 1407 1406 1407 1406 1405 1404 1401 1397 1399 1402 1402 1400 1401 1404 1402 1401 1406 1408 1409 1415 1420 1420 1420 1415 1407 1406 1411 1414 1413 1411 1409 1406 1407 1413 1420 1425 1423 1423 1428 1425 1422 1424 1418 1412 1415 1413 1413 1417 1415 1411 1411 1412 1413 1414 1415 1416 1417 1418
1473 1466 1460 1457 1455 1451 1447 1444 1443 1443 1442 1440 1438 1433 1427 1424 1420 1417 1416 1416 1415 1415 1413 1410 1407 1406 1406 1406 1408 1408 1406 1405 1406 1406 1405 1404 1400 1397 1399 1402 1402 1402 1403 1403 1401 1403 1409 1409 1405 1409 1410 1406 1405 1404 1401 1402 1406 1408 1409 1409 1408 1406 1406 1410 1413 1412 1413 1422 1428 1421 1418 1424 1419 1410 1411 1410 1411 1414 1413 1410 1411 1412 1413 1414 1414 1414 1414 1416
1473 1467 1463 1463 1461 1454 1450 1447 1447 1448 1447 1444 1440 1435 1431 1428 1424 1419 1416 1414 1413 1412 1412 1410 1407 1405 1404 1405 1407 1407 1406 1406 1406 1405 1405 1405 1403 1402 1401 1400 1399 1401 1401 1401 1399 1402 1409 1410 1405 1405 1407 1403 1400 1400 1399 1400 1401 1402 1403 1404 1404 1404 1406 1407 1405 1403 1407 1416 1419 1413 1414 1420 1417 1409 1407 1404 1405 1407 1407 1408 1410 1410 1411 1411 1411 1411 1412 1413
1472 1468 1465 1465 1463 1458 1455 1454 1452 1451 1449 1445 1441 1436 1433 1431 1426 1421 1416 1414 1413 1410 1410 1410 1407 1405 1404 1404 1405 1405 1406 1406 1406 1404 1403 1404 1405 1405 1404 1401 1397 1396 1397 1399 1398 1400 1406 1408 1405 1405 1407 1404 1401 1399 1397 1397 1399 1400 1400 1400 1400 1400 1401 1402 1401 1401 1403 1406 1406 1406 1410 1411 1408 1404 1402 1399 1399 1401 1402 1404 1406 1407 1409 1409 1410 1409 1409 1410
1472 1469 1467 1467 1464 1460 1458 1455 1453 1451 1447 1444 1441 1437 1433 1431 1428 1422 1418 1419 1418 1412 1408 1409 1406 1404 1403 1402 1402 1403 1402 1402 1403 1401 1401 1403 1404 1402 1403 1401 1396 1394 1395 1396 1397 1400 1405 1408 1405 1405 1408 1407 1402 1399 1397 1396 1397 1398 1398 1397 1397 1397 1396 1396 1397 1398 1401 1403 1401 1403 1407 1406 1398 1395 1396 1395 1396 1399 1400 1400 1402 1405 1407 1408 1407 1406 1405 1407
1471 1470 1470 1468 1464 1459 1456 1453 1451 1451 1447 1442 1439 1435 1432 1430 1429 1427 1424 1422 1421 1416 1411 1409 1409 1407 1404 1401 1401 1400 1399 1400 1402 1401 1401 1403 1404 1402 1401 1399 1397 1396 1395 1394 1397 1400 1404 1406 1403 1406 1413 1409 1399 1398 1399 1395 1394 1395 1394 1393 1394 1395 1395 1392 1391 1391 1395 1399 1402 1404 1405 1401 1394 1392 1393 1392 1393 1397 1398 1397 1399 1403 1404 1405 1403 1403 1403 1405
1470 1469 1469 1468 1463 1457 1455 1451 1449 1448 1445 1440 1437 1433 1432 1431 1430 1432 1431 1423 1419 1418 1416 1415 1416 1414 1409 1405 1404 1404 1404 1405 1405 1404 1404 1404 1403 1403 1403 1400 1399 1399 1397 1395 1397 1399 1401 1404 1403 1406 1414 1408 1397 1395 1395 1396 1402 1400 1390 1386 1388 1389 1390 1389 1386 1384 1384 1388 1396 1399 1395 1390 1388 1389 1391 1390 1391 1394 1394 1394 1398 1400 1400 1401 1400 1401 1403 1403